Location: Unspecified
(33.6682°S, 0.0000°E)
Time: 00:37:37
(UTC+00:00)

Vanguard 2 Rocket - Pass Details

Date: 27 June 2019
Orbit: 553 x 3327 km, 32.9° (Epoch: 18 August)

Event Time Altitude Azimuth Distance (km) Brightness Sun altitude
Rises 08:24:09 0° 286° (WNW) 7,211 11.2 12.8°
Reaches altitude 10° 08:29:20 10° 287° (WNW) 6,005 10.8 13.6°
Maximum altitude 08:47:05 82° 10° (N) 2,232 9.3 16.4°
Drops below altitude 10° 08:57:15 10° 96° (E) 3,664 10.6 17.9°
Sets 08:59:38 0° 97° (E) 4,362 10.9 18.2°
